Current weather by "City, St" or "zip code"  
 

Current Conditions: Montague Siskiyou County Airport, CA

Fair


49.0 F

Last Updated on Oct 24 2020, 9:53 am PDT
Humidity: 36%
Wind Speed: SW 4.6 mph
Barometer 30.05 in
Dewpoint: 23.0 F
Visibility: 10.00 mi
Precip: --
Heat Index: NA
Wind Chill: 47 F
Current conditions at:

Montague Siskiyou County Airport, CA (KSIY)

Lat: 41.77375 Lon: 122.46817

Local Radar Image active severe weather and emergency alerts image image weather storm and storm spotter reports image weather observation monitoring service image
Local
Radar
Active
Alerts
Storm Reports Obs
Monitoring

Sign-up For Email & Text Message Weather Alert Notification Services



Advertise Here

Observation History for Montague Siskiyou County Airport, CA


Time Wind
(mph)
Vis
(mi)
Weather Precip (in) Temperature (F) Relative
Humidity
Wind
Chill
(F)
Heat
Index
(F)
Pressure
Air Dwpt altimeter
(in)
sea level
(mb)
Rmks
9:53 am PDT SW 4.6 10.00 Fair -- 49.0 23.0 36% 47 NA 30.05 1018.5
8:53 am PDT N 0.0 10.00 Fair -- 43.0 19.9 40% NA NA 30.05 1018.7
7:53 am PDT N 0.0 10.00 Fair -- 36.0 18.0 48% NA NA 30.04 1018.9
6:53 am PDT W 5.8 10.00 A Few Clouds -- 35.0 18.0 50% 30 NA 30.05 1018.8
5:53 am PDT N 0.0 10.00 Mostly Cloudy -- 36.0 12.0 37% NA NA 30.05 1018.5
4:53 am PDT N 3.5 10.00 Fair -- 39.0 15.1 38% NA NA 30.04 1018.1
3:53 am PDT NE 4.6 10.00 Fair -- 35.0 12.0 38% 31 NA 30.05 1018.6
2:53 am PDT N 0.0 10.00 Fair -- 41.0 15.1 35% NA NA 30.06 1018.4
1:53 am PDT SW 3.5 10.00 Fair -- 40.0 16.0 38% NA NA 30.06 1018.8
12:53 am PDT S 3.5 10.00 Fair -- 41.0 12.0 30% NA NA 30.07 1019.1
11:53 pm PDT SW 4.6 10.00 Fair -- 44.0 12.0 27% 41 NA 30.07 1019.3
10:53 pm PDT N 0.0 10.00 Fair -- 44.0 15.1 31% NA NA 30.08 1019.7
9:53 pm PDT SW 3.5 10.00 Mostly Cloudy -- 48.0 17.1 29% NA NA 30.07 1019.4
8:53 pm PDT N 0.0 10.00 Mostly Cloudy -- 49.0 12.0 22% NA NA 30.06 1019.5
7:53 pm PDT NE 3.5 10.00 Fair -- 46.0 12.9 26% NA NA 30.05 1019.9
6:53 pm PDT N 0.0 9.00 Fair -- 54.0 12.0 19% NA NA 30.05 1019.1
5:53 pm PDT SW 4.6 10.00 Fair -- 64.0 15.1 15% NA NA 30.04 1018.2
4:53 pm PDT S 5.8 10.00 Fair -- 65.0 15.1 14% NA NA 30.05 M
3:53 pm PDT N 0.0 10.00 Fair -- 65.0 14.0 14% NA NA 30.07 M
2:53 pm PDT N 0.0 10.00 Fair -- 62.0 15.1 16% NA NA 30.08 M
1:53 pm PDT S 5.8 10.00 Fair -- 60.0 18.0 19% 60 NA 30.10 M
12:53 pm PDT SW 3.5 10.00 Fair -- 56.0 18.0 22% NA NA 30.14 M
11:53 am PDT N 0.0 10.00 Fair -- 54.0 19.0 25% NA NA 30.16 M
10:53 am PDT NE 3.5 10.00 Fair -- 50.0 19.9 30% NA NA 30.17 M

Regional Weather Observation


Rogue Valley International Airport, OR (KMFR)

Overcast
55.0 F

Mount Shasta, CA (KMHS)

Fair
55.0 F

Sexton Summit, OR (KSXT)

Fog
43.0 F

Klamath Falls International Airport, OR (KLMT)

Overcast
54.0 F

Trinity Center, CA (KO86)

Mostly Cloudy
50.0 F

Crescent City, Jack McNamara Field Airport, CA (KCEC)

Fog/Mist
53.0 F